Theta_e
347 345 344 343 343 344 348 351 352 352 351 352 352 351 350 350 350 351 352 351 351 350 349 349 349 348 347 345 344 343 343 342 342 341 341 343 342 338 336 336 336 337 336 335 338 340 340 341 341 339 339 338 338 339 339 339 339 339 340 339 338 338 338 337 336 335 334 334 334 334 334 334 334 333 333 332 332 332 332 331 331 332 332 333 333
348 345 344 341 342 344 346 351 352 351 351 352 352 351 350 350 350 351 351 351 351 349 349 348 348 348 346 344 343 342 341 341 340 340 341 343 343 340 337 338 338 339 338 336 336 338 340 341 341 340 340 339 338 339 339 339 338 339 339 338 338 338 338 337 337 336 336 336 336 335 335 335 335 335 335 334 334 334 333 332 332 332 332 333 333
347 345 343 341 343 345 347 350 352 351 351 351 352 351 351 351 350 349 350 350 350 350 349 348 347 345 344 342 342 341 340 339 338 339 342 344 345 342 339 338 339 340 339 338 335 335 337 340 341 341 340 340 339 339 339 338 338 338 338 338 338 338 337 337 337 337 336 336 336 336 336 336 336 336 336 336 336 336 335 334 333 332 332 333 333
344 343 341 341 343 346 348 350 351 351 350 350 348 349 351 352 349 348 349 349 350 350 347 346 345 343 342 341 340 339 338 338 338 340 342 343 345 345 342 341 340 340 340 339 338 335 335 338 339 340 340 340 340 340 340 339 339 338 338 338 339 338 337 336 336 336 336 336 336 336 336 336 336 336 336 336 336 336 336 335 334 333 332 332 332
343 342 339 340 343 346 347 349 351 351 349 346 344 348 351 351 350 349 349 348 349 349 345 344 344 342 341 340 339 338 338 338 340 341 341 342 344 345 346 345 341 340 341 340 339 337 334 335 337 339 340 340 340 341 341 339 340 340 338 338 338 338 338 337 336 335 336 336 336 336 336 336 335 336 336 336 336 336 335 335 334 333 333 332 332
343 342 339 340 343 345 345 349 352 348 346 344 344 350 351 350 350 347 347 348 347 346 344 343 342 341 340 339 339 338 338 339 340 341 341 342 344 344 347 347 344 344 343 340 339 337 334 333 335 337 338 339 341 341 341 340 341 341 340 339 338 338 338 338 337 336 336 336 335 335 336 336 336 336 336 335 335 334 333 334 333 333 332 332 332
344 342 340 341 345 346 345 348 350 345 346 345 344 351 352 350 350 346 346 348 347 345 344 343 342 340 341 340 339 338 339 340 340 340 341 343 345 345 345 347 347 347 344 342 340 336 332 332 333 336 337 338 340 341 341 341 341 341 340 340 339 339 338 338 338 338 337 337 335 335 336 336 336 336 336 335 334 333 332 332 332 331 332 332 332
343 343 341 343 346 347 346 346 346 345 347 345 344 349 351 350 348 345 344 345 345 344 343 343 342 340 340 339 339 338 339 341 341 342 343 344 345 345 345 346 347 345 342 343 342 336 332 332 332 334 336 338 340 340 340 341 341 340 340 340 340 339 339 338 338 338 338 338 337 336 336 336 336 336 336 335 335 334 333 332 332 331 332 333 333
343 343 342 344 345 346 347 346 345 347 347 345 346 350 352 351 347 345 344 344 344 344 343 342 341 340 340 339 339 338 339 341 342 342 342 344 345 345 346 346 344 343 342 345 344 339 336 335 332 332 335 338 339 338 339 340 340 340 340 340 340 339 339 339 338 338 338 338 338 338 337 337 336 336 336 336 336 336 335 335 334 334 334 334 335
342 343 342 343 343 344 347 346 346 348 347 345 345 349 351 349 345 344 344 343 343 344 343 342 340 339 339 340 340 339 339 341 341 342 342 343 345 346 347 346 345 344 343 345 345 342 341 339 335 332 334 336 336 336 336 337 339 340 340 340 340 340 340 339 339 339 339 339 338 337 337 337 337 336 336 337 337 337 337 337 336 336 336 335 336
342 342 342 342 341 343 345 347 348 348 346 345 347 350 349 345 344 345 343 343 343 343 342 341 339 338 338 339 340 339 339 340 340 341 342 342 343 344 345 346 345 343 342 344 346 344 343 342 341 338 336 336 335 335 334 334 336 337 338 340 340 341 341 341 340 340 340 340 339 338 337 337 337 336 336 337 337 337 337 337 337 337 337 336 336
342 342 343 342 343 345 346 347 349 348 346 345 349 351 348 344 345 344 343 343 342 342 342 341 339 338 337 337 338 339 339 340 339 341 342 342 343 343 343 343 343 342 342 343 344 344 341 341 343 343 340 337 337 336 336 337 337 336 337 338 339 340 341 341 341 341 341 341 340 339 338 337 337 337 337 337 337 337 337 337 337 337 337 337 337
343 343 344 345 346 347 348 348 349 348 347 347 349 349 346 346 345 344 345 345 343 343 342 341 339 338 337 336 337 338 339 340 339 340 341 342 342 342 341 341 341 341 341 340 340 341 341 341 344 346 341 339 339 338 339 339 338 338 337 338 338 339 339 340 341 341 341 341 341 341 340 338 338 338 338 338 338 338 338 338 338 337 337 338 338
343 345 347 347 348 348 348 348 348 348 348 348 348 347 346 345 345 346 346 344 344 343 341 340 339 337 337 337 337 337 338 339 339 339 341 342 341 341 341 340 340 340 340 340 338 339 342 342 344 344 341 340 340 338 339 338 338 338 337 338 338 338 339 339 339 340 340 340 341 340 339 339 339 338 338 338 338 338 338 338 338 338 338 338 338
344 346 348 349 349 348 347 347 347 348 348 349 348 347 346 345 346 347 346 344 344 343 341 340 339 337 336 337 339 337 336 337 338 338 340 341 340 341 340 340 339 337 338 338 338 339 339 338 338 337 337 340 339 338 339 338 336 336 336 337 337 337 338 338 338 338 339 340 340 339 338 338 338 338 338 338 338 338 338 338 338 338 338 339 339
344 346 347 349 348 348 347 347 347 348 348 349 348 347 347 347 348 347 345 344 343 343 342 338 337 338 338 336 336 337 338 337 336 337 339 340 340 340 340 340 337 334 337 337 335 336 335 331 330 330 332 335 336 338 341 339 335 333 331 330 331 331 331 332 331 330 330 332 333 332 330 330 330 329 329 330 330 330 330 330 329 331 333 335 336
343 345 346 347 347 348 347 346 347 347 348 349 349 348 347 348 347 346 345 343 342 343 343 339 335 336 338 338 335 336 337 337 336 337 337 338 339 340 340 339 336 335 337 335 332 334 335 329 326 326 328 329 332 337 341 338 335 334 329 323 322 322 322 322 321 319 320 321 320 320 319 319 319 319 318 318 318 319 319 319 319 320 322 323 325
341 342 343 344 346 348 347 346 348 349 349 349 349 348 348 349 347 344 343 343 343 342 342 340 333 329 334 339 339 340 339 337 338 339 339 338 339 340 340 339 338 337 337 335 333 335 336 332 328 326 326 327 328 331 333 330 327 327 325 320 317 318 318 317 317 316 316 316 315 315 315 315 315 315 315 315 315 315 315 315 315 316 316 316 317
340 340 342 343 345 347 346 346 348 350 350 349 349 349 349 350 347 344 343 342 343 342 342 340 332 327 333 337 337 339 341 340 340 340 340 339 339 339 339 339 338 337 337 336 334 334 336 335 333 329 326 326 327 328 327 323 321 322 321 319 318 318 318 317 316 316 316 317 317 317 317 317 318 317 317 316 315 315 314 314 314 314 314 314 315
340 340 340 342 344 345 345 346 348 350 350 349 350 350 350 350 347 344 344 344 342 340 342 341 337 335 336 337 336 336 337 340 341 340 340 339 339 339 338 338 337 336 337 336 335 334 334 334 335 334 331 328 329 331 330 324 322 324 323 322 322 321 320 320 320 320 320 321 321 321 321 321 321 321 320 320 319 318 317 316 315 315 314 314 314
340 340 341 342 343 343 345 346 347 349 350 350 350 350 350 349 347 345 344 345 341 335 335 336 338 341 339 337 338 337 336 339 340 340 340 339 339 338 338 337 336 335 335 336 336 335 335 333 333 335 335 333 332 333 333 330 327 327 327 326 326 325 325 325 324 324 324 324 324 323 323 323 323 322 322 322 321 321 320 319 318 317 317 317 316
341 340 340 343 343 343 343 345 347 349 350 350 349 350 350 347 348 346 345 346 340 329 327 328 332 341 342 338 338 338 339 340 340 339 340 340 338 337 337 337 337 336 336 336 336 335 336 335 334 334 336 335 334 334 334 333 330 329 329 328 328 328 328 328 327 327 326 326 326 325 325 325 324 324 324 324 323 323 322 321 321 320 320 319 319
340 340 339 341 343 342 342 343 345 348 348 348 347 348 348 347 346 345 346 347 340 327 324 323 325 333 339 339 338 339 340 341 341 340 339 339 338 336 335 335 336 336 337 336 336 336 336 336 336 335 335 335 335 335 334 332 330 329 329 328 329 329 329 329 329 328 328 327 327 327 326 326 325 325 324 324 324 324 323 323 322 322 321 321 321
340 340 339 340 341 341 342 341 343 346 346 346 345 345 346 346 346 345 347 348 341 328 322 320 321 325 334 339 339 338 340 339 340 340 340 340 339 338 336 336 336 335 336 336 335 336 336 336 335 335 335 335 335 334 332 332 332 330 329 329 329 329 328 329 329 329 329 328 327 327 326 326 325 325 324 324 324 324 324 324 324 324 323 323 322
339 339 339 340 340 340 341 341 342 344 344 344 343 342 344 346 346 345 348 348 340 330 323 319 322 324 331 339 339 338 340 339 338 338 339 339 339 338 337 337 337 336 337 337 336 336 336 335 335 335 335 335 334 333 331 333 334 331 329 329 329 328 328 328 328 328 328 328 328 327 326 326 326 325 325 325 325 325 325 325 324 324 324 324 324
337 338 338 339 339 339 339 340 342 343 342 342 341 341 344 346 347 346 348 349 343 333 327 321 321 323 327 335 338 339 340 339 338 337 338 339 338 338 339 338 336 336 338 338 336 336 336 335 335 335 335 334 334 333 332 334 335 332 330 330 330 329 329 329 329 328 328 328 328 328 327 327 327 327 327 327 327 327 327 327 326 326 326 326 326
337 337 337 338 338 338 338 338 340 341 340 340 339 340 344 346 348 347 348 351 346 337 330 325 321 320 321 326 331 337 339 339 339 338 337 338 338 337 339 339 338 336 337 338 337 336 335 335 336 336 335 332 331 332 330 332 334 331 330 330 330 330 330 330 330 329 329 329 328 327 327 327 327 328 328 328 328 328 328 328 327 328 328 328 327
337 338 337 338 338 338 337 337 338 339 338 339 337 338 341 344 346 346 347 350 349 340 333 329 323 321 321 320 322 332 338 338 337 339 339 338 339 339 338 339 339 338 338 338 338 337 335 335 336 336 334 330 330 331 328 330 332 329 328 328 329 330 330 330 330 329 329 329 328 327 326 325 325 324 324 324 324 325 325 326 327 327 328 328 328
337 337 337 337 338 337 337 337 337 337 336 337 336 336 339 341 344 346 347 350 349 342 336 332 327 325 326 323 319 324 330 329 330 334 336 334 334 336 337 338 338 339 339 338 338 338 336 335 334 335 334 328 327 328 325 328 330 326 326 328 328 330 329 328 328 328 327 327 326 326 325 324 323 321 320 319 319 320 320 321 322 323 324 325 325
338 337 337 337 338 337 337 337 336 337 336 336 335 336 338 340 342 344 345 348 350 345 339 334 329 327 328 327 323 322 324 322 323 327 328 325 327 331 334 337 338 338 339 339 339 338 337 336 334 334 334 329 328 327 325 327 327 324 325 326 328 330 328 326 326 325 326 326 326 326 326 326 324 322 320 318 317 317 317 317 318 318 319 320 322
339 337 337 336 337 337 337 337 337 336 336 336 335 335 337 339 342 342 343 346 348 347 341 336 332 327 325 325 324 323 323 322 323 326 325 321 322 327 330 334 335 336 338 339 339 339 338 337 335 335 335 331 331 331 329 329 326 324 325 325 328 329 326 325 325 325 326 326 326 328 328 327 326 324 322 319 317 316 316 316 317 317 318 319 320
342 339 337 336 336 336 335 336 336 336 336 335 335 335 336 338 341 342 343 342 342 345 343 338 334 329 323 321 322 321 322 321 321 324 324 321 321 324 327 330 331 332 335 337 339 339 338 337 335 336 337 334 331 329 329 331 328 324 325 325 326 327 326 327 328 327 327 327 328 329 329 328 328 326 324 320 317 316 316 316 317 318 319 320 321
345 343 340 337 336 335 335 335 336 336 336 335 335 336 337 338 340 341 341 339 338 341 342 339 336 332 325 321 321 320 320 320 319 320 322 321 320 321 324 327 329 329 330 333 338 339 339 338 336 335 337 336 334 329 326 329 331 326 323 325 325 325 327 331 333 331 330 330 330 329 329 328 328 327 324 320 317 316 316 316 317 318 319 321 322
346 345 343 340 336 335 335 335 335 336 335 335 335 336 337 338 339 340 340 339 337 339 340 338 337 335 329 323 320 320 320 320 320 320 322 323 321 321 321 323 327 330 328 328 334 338 338 339 338 335 334 333 333 332 327 328 334 332 326 325 325 325 327 331 334 334 332 331 330 330 329 327 326 326 324 320 318 316 316 316 317 318 319 321 322
345 346 345 343 339 336 335 335 335 335 335 335 335 336 337 338 339 339 339 339 338 337 338 337 336 336 333 327 322 321 320 320 321 321 323 324 322 322 322 322 324 329 331 327 328 335 338 338 339 338 336 332 330 331 331 329 332 333 330 328 329 329 330 331 333 335 333 331 331 330 329 328 326 324 322 320 318 317 316 317 318 319 320 320 321
345 345 345 345 343 340 337 335 335 334 334 335 334 335 337 338 339 339 339 340 339 338 336 336 335 336 335 333 330 327 324 322 321 322 322 322 322 322 322 323 321 324 333 333 325 327 334 337 339 338 337 336 333 332 333 332 331 331 330 331 333 333 332 332 333 335 334 331 331 331 331 329 327 324 322 321 319 318 317 318 318 319 319 320 321
344 345 345 345 346 344 341 339 336 334 333 333 333 334 336 338 339 339 339 340 340 340 337 336 335 335 335 335 335 335 333 329 326 324 323 322 322 323 322 323 321 320 328 334 329 325 328 334 338 338 334 334 334 334 335 335 334 333 331 330 332 333 332 332 335 336 335 332 331 332 331 330 328 326 324 323 322 321 319 318 318 318 318 319 319
344 345 345 346 346 346 345 343 341 337 334 333 333 333 335 337 338 339 340 340 340 341 340 338 336 334 335 335 336 337 337 336 334 331 328 326 324 325 324 322 323 322 324 329 330 328 327 330 336 338 335 333 333 333 332 331 332 336 336 334 334 334 332 331 333 335 335 333 332 332 331 329 328 326 325 324 324 323 321 319 318 317 317 318 318
343 344 345 346 346 346 346 346 345 343 339 336 334 333 334 336 336 337 339 340 340 341 341 340 339 336 335 335 335 336 337 337 338 336 335 334 332 331 331 328 327 327 327 329 332 330 330 331 334 338 338 336 334 334 331 328 329 332 334 336 338 338 336 334 332 332 333 332 332 332 330 328 327 325 324 324 323 322 321 320 318 318 317 318 318
344 344 345 346 346 347 347 347 347 346 344 342 339 336 334 334 334 335 337 339 340 341 341 341 340 339 337 336 335 336 337 336 338 339 338 338 338 338 338 337 336 333 332 334 336 335 334 335 336 338 339 338 337 336 333 330 328 329 329 330 334 336 338 338 336 332 331 332 332 331 330 328 326 325 324 324 323 322 320 319 318 317 317 317 318
344 344 345 346 346 347 347 347 347 347 346 345 343 339 337 334 333 334 335 337 339 340 341 341 341 341 339 338 337 336 337 336 336 339 340 340 340 341 341 341 341 338 335 335 338 338 338 338 338 339 339 339 338 338 337 332 329 330 331 330 329 331 333 335 334 332 331 332 332 330 329 327 326 326 327 327 327 325 323 321 321 322 321 318 317
344 344 344 346 346 347 347 347 347 347 347 347 344 341 339 336 333 333 333 335 337 339 340 341 342 341 340 339 338 337 337 337 336 338 340 341 341 341 342 343 343 342 338 335 336 339 340 340 340 340 339 339 338 338 338 336 333 333 333 331 330 332 331 331 332 332 332 332 332 330 329 328 328 329 329 329 329 327 326 325 325 324 321 317 316
344 345 345 345 346 347 347 347 348 348 347 347 345 342 341 339 337 335 334 334 336 337 339 340 341 341 340 340 339 339 338 338 338 338 340 341 342 342 343 343 343 344 341 337 336 338 340 340 340 340 339 339 339 338 337 338 338 335 333 332 333 334 334 334 335 336 334 332 332 331 329 329 329 330 330 329 328 327 326 325 323 320 317 315 314
345 345 345 345 346 346 348 347 348 348 348 348 347 344 343 342 341 340 337 335 335 336 338 339 340 341 341 340 340 340 339 338 339 339 340 341 342 343 343 344 344 345 344 341 338 339 340 340 339 339 338 338 338 338 338 338 337 334 332 333 334 334 335 335 336 337 336 333 331 331 330 330 329 329 329 328 327 326 325 323 320 316 315 315 314
345 345 345 346 346 346 347 348 348 348 348 348 348 347 345 344 343 343 342 339 337 336 336 338 340 340 341 341 340 341 340 340 340 341 342 343 343 343 344 345 346 345 345 343 341 339 339 340 339 338 337 338 338 337 336 335 334 333 333 334 334 333 333 333 333 334 334 332 330 331 331 330 328 327 327 327 325 325 324 322 318 316 315 315 314
345 346 346 346 346 346 347 348 348 348 349 348 348 348 347 346 345 345 345 344 342 339 336 336 339 339 340 340 340 341 340 340 341 343 344 345 345 345 345 346 346 346 346 345 342 339 336 337 339 338 337 338 337 334 333 332 332 332 333 334 334 333 333 333 332 332 332 331 330 330 330 329 327 326 326 326 324 323 322 321 318 315 315 314 312
346 346 346 346 346 346 347 348 348 348 348 349 349 348 347 346 346 346 345 345 344 339 336 335 337 339 340 341 340 340 340 340 340 343 345 346 347 346 347 348 347 347 347 346 344 340 336 333 334 336 338 337 334 331 331 333 334 333 331 332 332 332 332 332 331 331 331 330 330 330 329 327 326 326 325 324 323 322 321 319 316 314 314 312 309
346 346 346 347 347 346 348 350 351 348 348 349 348 348 347 345 345 348 347 345 342 339 336 335 337 339 341 342 341 340 340 341 341 342 345 348 348 348 348 348 347 347 347 346 344 342 338 333 330 332 335 335 332 330 331 333 334 333 330 331 331 331 332 332 331 331 331 329 329 329 327 326 325 325 324 323 322 321 319 318 317 316 313 309 305
347 347 346 347 347 347 348 350 351 348 349 351 350 348 348 346 344 347 347 346 343 340 337 336 337 339 339 340 341 341 340 340 341 343 346 348 349 349 349 348 347 346 346 345 344 342 338 333 330 331 332 331 329 328 329 331 332 331 330 331 332 332 332 332 332 331 330 328 327 326 325 325 324 323 322 322 321 319 318 318 318 318 314 309 306
347 348 349 349 348 349 349 349 349 348 350 352 351 349 349 347 344 344 346 346 344 340 338 338 339 341 341 340 341 341 340 340 341 343 346 348 349 350 349 348 347 346 346 345 343 342 338 333 332 332 332 330 327 326 327 329 330 330 329 330 332 333 333 332 330 329 328 326 325 325 324 323 323 322 321 321 320 319 319 318 318 317 316 314 312
347 348 349 350 350 351 351 351 352 351 352 353 353 351 350 348 347 346 345 346 344 340 338 340 341 344 345 344 341 340 340 341 342 343 346 348 350 350 349 348 347 347 346 344 343 343 339 334 333 333 331 329 326 326 328 329 329 329 328 329 331 333 332 330 328 327 327 326 325 324 323 322 321 321 320 320 319 319 319 318 317 316 316 315 315
Wind_Speed
7 7 6 6 6 6 4 2 1 1 1 2 3 3 4 3 4 4 5 5 5 5 5 5 4 5 3 1 3 4 4 4 3 3 2 2 2 4 4 3 3 3 3 2 1 3 3 3 3 4 4 4 5 4 4 4 3 3 4 4 4 4 3 2 3 3 3 4 4 3 3 2 2 1 1 1 2 3 4 4 4 3 3 3 2
7 8 7 7 7 6 5 3 2 1 1 1 2 3 3 4 4 4 5 5 5 6 6 4 2 2 2 2 3 4 4 4 3 3 1 1 1 2 4 3 3 4 4 3 1 2 3 4 5 5 6 6 5 5 4 5 4 3 5 4 4 4 4 4 4 4 4 4 4 4 4 4 4 3 2 2 2 2 3 4 4 4 4 3 3
8 9 8 7 7 7 5 3 2 2 2 2 2 3 3 3 4 4 5 6 6 6 6 4 3 2 2 4 4 3 4 4 3 2 1 2 2 1 2 3 3 4 4 4 2 1 3 5 6 7 7 7 6 6 5 6 5 4 5 5 4 5 5 5 5 4 4 4 5 5 5 5 5 5 5 4 4 3 3 3 4 4 4 4 4
10 9 9 8 7 7 5 3 2 3 3 2 2 3 3 3 6 7 6 6 6 6 5 4 4 3 3 4 4 4 5 4 2 1 1 2 2 1 1 2 2 3 5 5 3 1 1 4 6 7 7 7 7 6 6 6 6 5 5 5 5 6 6 5 5 5 6 5 5 6 6 6 5 6 6 6 5 5 5 5 5 5 5 5 5
9 9 9 9 8 7 5 3 3 4 4 3 3 4 3 3 5 7 6 6 6 5 4 3 2 3 3 4 4 5 5 3 1 1 1 2 2 1 0 1 2 3 4 5 4 2 1 2 4 5 6 7 7 6 7 7 7 7 6 6 6 6 6 6 6 6 6 7 6 6 6 6 6 6 6 7 7 6 6 6 6 7 7 7 7
10 9 9 9 8 7 6 4 4 5 4 3 4 3 3 3 4 6 6 6 6 4 3 2 2 2 2 3 4 5 5 2 2 1 1 1 1 0 1 1 3 4 3 3 4 3 1 1 2 3 5 6 6 7 8 8 8 7 7 7 7 7 7 7 7 7 7 8 7 7 7 7 7 7 8 8 8 7 7 7 7 8 8 8 9
10 10 10 9 8 7 6 5 5 5 4 4 4 2 3 3 4 6 7 6 5 4 3 2 2 1 1 3 4 5 4 2 1 1 2 1 1 0 2 2 0 2 3 2 2 2 2 1 1 3 4 5 6 7 8 8 8 9 8 8 8 8 8 8 8 9 9 9 9 9 8 9 9 9 10 9 8 8 7 8 8 9 9 9 10
11 11 10 9 8 7 6 6 6 5 5 5 4 3 3 3 5 7 7 6 4 3 3 3 2 1 1 2 3 4 3 2 1 1 0 1 1 0 2 2 2 1 2 3 2 2 3 2 1 2 5 4 4 4 5 6 7 9 9 9 9 9 8 8 8 10 10 10 11 10 10 11 12 11 11 10 10 9 9 10 10 10 10 10 10
12 12 11 10 9 8 7 7 7 7 6 6 5 4 3 4 7 8 7 6 4 3 3 3 2 1 0 1 2 3 2 1 2 1 2 2 2 2 3 2 3 3 2 4 3 2 2 2 1 2 3 3 3 2 2 4 5 7 8 9 9 9 9 8 9 10 10 11 12 11 12 12 12 12 11 10 11 11 11 12 12 12 12 11 11
13 12 11 11 10 9 9 8 8 8 7 6 5 4 4 4 7 8 7 5 3 2 2 1 1 0 0 2 2 2 2 1 2 1 3 3 2 3 4 3 3 3 3 1 2 2 2 2 1 1 1 1 2 1 1 2 3 3 5 7 8 9 9 9 9 10 10 10 11 12 12 12 12 11 11 11 12 12 12 13 14 14 14 13 13
14 13 12 12 11 10 10 9 9 8 6 5 5 4 5 6 7 7 6 3 1 1 1 1 0 1 1 3 3 2 2 1 1 1 2 3 3 4 4 4 4 3 3 3 1 1 2 3 2 1 1 1 2 2 2 2 2 2 2 4 6 7 8 9 9 10 11 11 11 12 12 12 11 10 10 11 12 12 12 13 14 15 15 14 14
15 14 13 12 11 11 11 10 9 8 6 5 5 4 6 7 7 6 5 3 1 1 1 1 1 2 3 3 3 2 3 2 0 1 2 3 3 5 5 3 4 3 2 3 2 1 1 3 2 1 1 2 2 2 2 2 2 2 3 3 4 5 6 7 7 9 10 10 11 11 12 12 11 11 11 11 12 12 12 13 14 15 15 15 15
15 15 13 12 12 12 11 10 9 8 6 5 5 5 6 7 6 6 4 2 1 0 0 0 1 2 2 1 2 2 3 2 1 2 2 3 3 5 4 3 3 3 3 3 2 1 1 3 3 2 1 2 2 2 2 2 1 2 3 3 3 4 4 5 6 6 7 8 9 10 11 11 12 12 12 12 12 12 13 14 15 15 15 15 15
16 15 14 13 13 13 12 10 10 9 7 6 5 6 6 6 5 4 3 1 0 1 2 1 1 0 1 1 2 3 3 3 2 3 3 4 4 4 4 3 3 3 3 3 2 1 1 2 3 2 2 2 1 1 0 0 2 1 1 2 2 2 2 3 3 3 4 6 7 7 9 9 10 10 11 11 11 11 11 12 13 13 13 14 15
16 15 14 14 13 13 12 11 10 9 8 6 6 5 5 5 4 3 3 2 1 2 2 1 0 1 2 3 3 3 2 2 3 3 4 4 4 4 4 3 3 3 4 3 3 2 1 1 1 2 2 2 1 2 2 2 4 3 2 2 1 1 1 1 1 1 1 2 3 4 5 6 6 7 8 8 8 8 9 9 10 11 11 12 12
17 16 15 14 14 13 12 11 11 9 7 6 6 5 4 4 3 3 2 1 1 2 3 2 2 3 2 2 3 4 3 3 4 4 4 5 4 3 4 3 2 3 4 3 2 2 2 2 1 1 1 2 1 2 2 2 3 3 3 3 3 3 2 3 3 3 2 1 1 1 2 2 3 4 4 5 6 7 7 8 9 9 10 10 10
18 17 16 14 14 13 13 13 11 9 7 6 6 5 4 3 3 3 3 2 2 3 3 3 4 6 5 3 3 3 3 4 5 4 4 4 4 4 3 3 2 3 4 3 3 4 3 2 2 1 1 1 1 2 2 1 2 2 2 2 3 2 2 2 3 3 2 1 1 1 2 2 3 4 5 5 6 6 7 8 9 9 10 10 10
19 18 17 15 15 14 14 13 11 9 7 7 6 6 4 4 4 4 4 4 4 4 4 3 5 7 7 5 3 2 3 3 4 4 4 5 5 5 4 4 3 3 3 3 4 4 3 2 3 2 1 1 1 2 2 2 2 2 1 2 2 2 2 2 2 2 2 2 2 3 4 4 5 5 6 6 7 7 8 8 8 9 10 10 11
19 19 18 16 15 15 15 13 11 9 9 8 7 6 5 4 4 4 4 4 5 5 5 4 5 6 6 5 3 1 2 3 3 3 3 4 5 5 5 4 3 2 3 3 3 3 3 2 3 3 3 2 2 3 4 3 3 3 3 2 3 3 2 2 2 2 3 3 4 4 5 5 6 6 6 7 7 8 9 9 9 10 10 11 11
20 19 19 17 17 16 15 14 12 11 10 8 7 7 6 6 5 5 5 5 5 5 6 6 5 5 6 5 4 4 4 3 2 2 2 2 4 4 4 4 3 2 2 3 2 2 2 2 2 2 3 3 4 5 5 4 5 4 3 3 3 3 3 3 2 1 2 2 3 3 4 5 5 6 7 7 8 8 9 9 10 10 11 11 12
20 20 19 18 18 17 16 15 13 12 11 9 8 8 7 7 6 6 6 5 5 5 6 8 6 5 6 6 5 5 4 4 4 3 3 2 2 4 4 4 3 3 3 3 3 3 3 3 2 2 2 3 4 5 5 4 4 3 3 3 3 3 3 2 2 1 1 2 3 3 4 5 5 6 6 7 8 8 8 9 10 10 11 11 12
21 21 20 19 18 18 17 16 14 13 12 10 9 9 8 9 8 7 7 6 5 5 5 8 9 8 7 6 6 5 5 5 5 4 3 2 2 3 4 5 5 5 5 4 4 4 4 3 2 2 3 2 3 4 4 4 3 3 2 2 2 2 2 1 0 1 2 2 3 3 4 4 5 6 6 7 8 9 9 10 10 11 11 12 12
22 22 22 20 19 19 18 17 16 14 13 12 11 10 9 9 9 9 9 7 6 6 6 8 9 10 8 7 6 6 6 6 5 5 5 4 3 3 3 3 3 4 5 5 6 5 5 4 3 3 3 3 3 3 4 4 3 2 2 2 1 1 2 2 3 2 2 3 3 4 5 5 6 7 7 8 8 9 10 11 12 12 13 13 14
24 23 23 22 21 21 20 19 18 16 15 13 13 12 10 10 10 11 9 8 7 8 7 8 9 9 8 8 7 6 7 6 5 6 6 5 5 4 3 2 2 3 4 5 6 7 7 6 5 5 4 5 5 5 5 5 4 4 4 5 5 5 6 6 6 5 5 6 6 7 7 8 8 9 9 9 10 10 11 12 13 13 14 15 15
26 25 24 23 23 22 21 21 20 19 17 16 16 14 11 11 12 12 10 9 9 9 9 8 9 9 9 8 8 7 7 7 6 6 6 6 6 5 4 3 4 5 5 6 6 7 8 8 8 7 7 8 7 7 6 5 6 6 6 8 8 8 9 9 9 9 9 9 9 10 10 11 11 11 12 12 12 13 13 14 14 15 16 16 17
27 26 25 24 24 23 22 21 21 21 20 18 17 15 13 13 13 13 11 10 10 11 10 10 10 10 10 10 9 8 8 7 7 7 6 6 6 6 6 4 5 5 5 6 7 7 7 8 9 10 10 10 9 9 8 7 8 8 8 10 11 10 11 11 11 12 12 12 12 12 12 12 13 13 14 14 14 15 16 16 16 17 17 18 18
27 26 26 25 25 24 22 21 21 22 20 19 18 16 14 14 14 14 13 11 11 12 12 12 12 11 11 11 11 10 9 8 8 7 7 6 6 6 6 6 6 6 6 6 7 7 7 7 8 10 11 10 9 11 10 8 10 10 8 11 13 12 11 12 13 13 13 13 13 13 14 14 15 15 15 16 16 16 17 18 18 18 19 19 20
28 27 27 27 27 26 23 22 22 22 21 20 19 17 16 16 16 16 15 12 12 13 14 14 14 13 13 13 12 11 11 11 10 9 9 8 8 8 7 7 6 6 6 6 6 7 7 8 8 9 10 9 9 11 10 8 11 10 9 11 12 12 11 11 13 13 13 13 14 14 15 15 15 15 16 16 16 17 17 18 19 19 20 20 20
30 29 29 29 28 28 26 24 24 23 22 21 20 19 18 18 17 17 15 13 12 14 15 15 15 15 15 14 13 13 14 13 12 12 12 11 10 10 9 9 8 7 7 6 6 6 6 8 8 10 10 8 8 10 9 9 10 8 8 10 10 11 10 10 11 12 12 12 13 13 14 14 15 15 15 15 15 16 17 18 19 20 20 20 20
32 31 30 30 30 30 29 28 27 26 24 23 22 21 20 20 19 18 17 16 13 14 17 16 16 16 16 16 15 15 15 14 13 13 14 13 12 12 11 11 11 10 9 8 7 7 7 8 8 9 11 9 8 9 9 9 9 7 8 9 9 10 10 10 11 11 11 11 11 11 12 13 14 14 15 15 16 17 18 19 20 20 21 21 21
32 32 32 32 32 32 31 31 30 29 27 25 24 23 22 22 21 20 20 19 16 15 17 18 17 18 18 18 18 17 16 15 14 14 15 14 13 13 13 13 13 13 12 10 9 8 8 8 8 8 10 10 9 8 9 9 9 7 8 9 9 10 10 10 11 10 10 10 10 10 12 12 13 14 14 15 16 17 18 19 20 20 20 21 21
32 32 33 33 33 33 33 33 32 32 30 27 26 25 24 24 23 21 21 22 20 18 18 19 19 19 19 20 20 19 18 17 16 16 17 16 14 14 14 14 14 14 14 13 12 11 10 10 10 9 10 11 10 10 10 10 10 8 8 10 10 10 10 10 11 10 9 10 10 10 11 12 13 14 14 14 15 16 17 18 19 19 19 20 20
32 31 32 33 34 34 34 34 34 33 32 29 28 27 26 25 25 23 23 24 22 21 21 21 21 21 20 21 22 21 20 20 19 19 19 18 16 16 16 15 15 15 15 15 14 13 12 12 12 11 10 11 11 11 11 10 11 10 9 10 11 10 10 9 10 11 10 9 9 10 11 13 13 13 14 14 14 15 16 18 18 19 19 19 19
33 32 32 33 34 34 34 35 35 34 33 31 29 29 28 27 26 25 25 25 23 23 24 24 23 23 22 22 23 23 22 22 21 21 20 20 19 18 17 17 16 16 16 16 15 14 13 13 13 12 12 14 13 12 12 10 11 12 10 10 11 11 11 10 9 11 12 10 10 11 12 13 13 13 13 13 13 14 15 17 18 19 19 19 19
35 34 33 33 34 35 35 35 36 35 34 33 31 30 30 29 28 27 27 26 24 24 26 25 24 24 24 24 24 24 24 23 23 22 21 21 21 20 19 19 18 17 17 17 16 15 14 13 13 12 12 14 13 12 13 11 11 13 12 11 12 12 12 12 10 11 14 13 11 12 13 13 13 13 12 13 13 14 15 16 17 18 19 19 20
38 37 35 34 34 35 36 37 37 37 36 34 33 32 32 31 29 29 29 27 26 26 26 26 25 25 25 25 25 25 25 24 23 23 23 22 22 21 20 20 19 18 18 18 18 16 15 13 13 12 12 12 12 12 12 12 12 13 13 12 13 12 13 13 11 12 15 16 14 14 14 14 13 12 12 14 15 16 17 16 17 17 18 19 20
40 39 37 36 36 36 37 37 38 38 38 36 35 34 34 33 31 30 30 29 28 27 27 27 26 26 26 26 26 26 26 25 24 23 23 23 23 22 22 20 20 19 19 19 18 18 17 15 14 13 13 13 13 12 12 13 12 12 13 13 14 14 15 14 12 12 16 18 17 15 15 15 14 14 17 21 23 22 20 18 18 18 18 19 20
41 41 40 38 38 38 37 37 38 38 39 38 37 36 35 34 33 32 32 31 29 28 28 28 28 27 28 28 27 27 27 27 25 24 24 23 22 22 22 21 20 20 20 19 19 19 18 17 15 14 13 13 14 13 13 14 13 12 13 13 14 15 17 18 16 14 16 17 16 15 16 17 19 21 25 28 28 25 22 20 19 19 20 20 21
41 41 41 40 40 39 38 38 38 38 38 39 38 37 36 36 35 34 34 33 31 30 30 29 29 29 29 29 28 28 29 29 27 26 25 23 22 22 22 22 21 21 20 20 19 19 19 18 17 16 15 14 14 14 13 14 14 14 14 14 14 14 16 18 19 19 19 19 17 18 20 20 22 25 27 27 24 20 19 20 20 20 20 21 20
40 41 41 41 40 39 39 39 39 38 38 39 39 39 39 39 38 37 36 35 33 32 32 31 31 30 30 30 29 30 30 30 28 27 26 25 23 23 22 21 21 21 21 20 19 19 19 18 18 17 16 16 15 14 14 14 15 16 16 16 15 15 14 16 18 21 21 20 19 20 22 23 24 25 25 23 21 19 19 20 21 20 19 19 19
41 41 41 41 40 40 40 40 40 40 40 41 41 41 40 41 41 39 38 37 35 34 34 33 33 32 31 31 30 31 31 31 29 27 27 25 24 24 23 22 21 21 22 21 20 20 19 19 18 17 17 17 16 15 15 16 16 15 15 16 16 17 17 19 21 23 22 21 21 21 23 24 24 21 18 16 16 17 19 19 17 16 17 18 18
43 42 41 41 41 41 41 41 41 41 42 42 43 42 42 42 41 41 40 39 37 36 36 35 35 34 33 32 31 31 32 31 29 27 26 26 25 25 24 23 22 22 22 22 22 21 20 19 18 18 17 17 16 16 16 15 14 14 15 15 15 16 18 20 21 22 22 21 21 22 23 21 18 15 13 12 13 14 16 16 14 15 18 21 21
44 43 42 42 42 42 43 43 43 43 43 44 44 43 43 42 41 41 41 40 38 37 37 38 37 36 35 33 33 32 32 31 29 28 27 27 27 26 26 25 24 24 24 24 24 22 21 19 18 17 18 17 16 16 15 13 14 14 14 14 15 16 18 18 16 16 20 22 20 21 21 17 13 11 11 12 13 13 14 16 18 19 19 20 21
45 44 44 43 42 43 44 45 45 45 45 44 44 44 43 42 41 40 40 40 39 38 38 38 38 37 36 35 34 34 33 32 30 29 28 28 28 27 26 26 26 25 25 25 25 22 20 20 19 18 19 18 17 15 14 14 14 14 13 14 16 17 17 17 15 14 17 21 21 18 16 12 12 13 13 13 14 14 14 17 20 20 20 21 22
45 45 46 45 44 44 45 46 47 46 46 45 44 43 43 42 41 39 39 39 39 38 39 39 39 38 37 36 36 36 35 33 30 29 29 29 28 27 27 27 27 25 25 26 27 24 21 20 19 20 20 19 17 16 16 16 15 14 14 14 16 18 17 17 18 16 16 19 20 16 12 10 12 15 15 14 14 14 14 17 21 22 22 23 24
47 47 47 47 46 45 46 47 47 47 47 47 45 44 43 42 41 39 38 38 37 38 39 40 39 39 38 38 37 37 37 35 31 30 30 29 28 27 27 27 27 26 25 25 28 30 27 24 22 20 20 20 19 18 17 16 15 15 14 14 15 17 18 18 19 18 18 19 17 13 11 11 12 13 14 13 13 14 15 18 23 24 23 23 22
48 47 48 48 47 46 46 47 48 48 48 48 47 45 43 43 42 39 38 38 39 40 41 41 41 40 39 38 38 38 38 36 33 31 30 29 28 28 28 28 28 27 26 26 28 31 32 31 27 21 18 19 19 18 17 16 15 16 16 17 18 19 18 17 16 16 15 15 12 9 10 12 11 11 12 12 13 15 15 18 23 24 21 19 18
47 47 48 48 48 48 47 44 45 49 49 48 49 48 45 44 43 40 39 40 41 42 43 42 43 41 38 37 37 39 39 36 34 32 29 28 27 25 25 26 25 25 24 23 25 29 32 33 31 24 20 20 19 18 18 17 15 16 17 16 15 16 15 14 14 13 11 11 12 10 11 13 11 11 12 13 14 17 19 20 21 21 20 18 16
47 48 48 48 48 48 47 44 45 49 49 48 49 49 47 46 45 43 42 41 41 43 44 44 44 43 42 40 38 39 39 38 36 33 30 29 26 23 22 21 19 19 18 17 20 25 28 31 30 26 24 23 22 21 21 19 16 17 17 14 11 11 12 11 12 10 9 10 13 12 12 12 11 11 13 14 16 19 20 18 15 17 20 20 18
47 47 47 47 47 47 48 47 47 48 47 46 47 49 49 48 46 45 44 42 42 44 45 45 45 43 42 42 40 39 39 39 37 34 32 30 28 25 23 20 18 18 16 17 21 24 25 27 28 27 26 26 25 24 22 20 18 18 18 15 10 10 12 12 11 11 11 11 13 14 12 10 10 11 12 14 17 17 16 14 14 15 17 17 18
45 46 46 47 47 47 47 47 46 46 45 44 46 48 49 48 46 46 45 43 44 45 45 47 46 39 36 38 40 40 39 38 37 35 33 32 30 29 25 22 21 19 17 20 24 24 23 27 28 27 27 26 25 24 22 20 18 17 17 16 12 11 12 12 12 13 12 11 14 17 15 10 10 11 12 14 16 16 14 14 15 15 15 15 16
Wind_Direction
202 194 191 195 199 198 193 188 198 239 17 1 355 358 356 360 7 4 350 350 350 332 330 337 331 336 340 339 17 16 13 18 4 351 12 359 24 96 87 71 60 42 39 50 160 216 210 191 212 223 219 225 237 241 235 232 224 209 199 204 219 204 192 213 212 217 221 221 224 231 238 235 236 254 322 349 353 348 338 330 324 321 317 316 320
203 198 195 198 202 203 201 198 221 272 351 336 345 356 351 356 6 0 342 344 342 328 337 347 348 337 332 16 19 4 4 358 341 320 331 352 327 95 96 79 45 26 26 35 74 222 221 199 207 219 224 225 231 239 238 238 232 215 219 220 220 215 209 221 224 224 228 233 235 239 243 242 241 242 245 254 284 311 326 324 318 312 307 306 309
201 201 198 200 206 208 206 203 230 271 292 312 328 338 348 347 341 347 339 337 341 338 343 356 31 63 22 22 15 357 357 343 331 281 279 1 343 342 87 79 28 2 11 18 24 268 226 213 214 215 219 224 228 237 241 246 244 230 230 232 228 223 222 225 229 234 236 241 244 244 246 249 251 256 257 254 260 273 284 294 296 293 289 286 279
198 199 198 201 207 210 209 215 242 269 289 305 316 324 340 338 332 347 350 341 343 336 340 9 34 55 42 27 22 1 346 332 320 229 246 20 29 336 338 45 16 349 357 356 359 1 252 226 223 221 218 220 225 232 239 247 249 241 235 236 235 230 230 234 237 239 241 245 249 250 252 253 255 259 263 265 266 269 273 278 283 285 285 284 281
199 200 200 202 208 215 219 230 250 265 285 306 321 328 332 331 332 343 344 341 342 329 341 28 40 56 47 21 14 353 342 332 297 243 284 5 19 28 332 309 323 349 355 341 338 350 327 239 226 224 222 220 224 227 231 238 243 242 238 232 231 232 235 241 244 243 245 248 251 254 256 259 259 257 260 260 260 262 268 274 280 283 285 286 287
202 204 202 206 210 215 222 229 247 264 282 304 318 321 316 321 326 338 341 341 341 332 353 44 43 46 34 10 2 350 350 330 271 276 292 322 337 52 144 256 322 352 344 341 339 347 41 225 219 219 225 220 218 222 226 230 235 238 237 232 229 232 234 237 242 243 247 251 253 256 259 261 260 260 260 256 251 253 257 260 264 268 273 277 281
207 210 206 208 211 216 225 228 242 263 276 292 307 302 303 311 323 345 350 341 340 345 12 53 60 30 349 6 356 345 353 324 269 269 294 328 358 323 156 177 6 329 298 354 11 3 61 78 188 217 226 223 216 220 228 231 236 239 238 236 232 234 234 233 240 246 248 250 251 253 257 258 257 255 257 257 257 260 261 259 258 258 261 266 271
211 214 210 208 211 220 232 235 244 259 268 282 303 301 298 306 326 351 352 344 357 16 27 50 59 34 341 9 353 339 348 350 358 160 305 17 53 85 135 157 165 178 317 357 36 82 85 80 99 218 221 230 232 227 235 236 241 245 246 244 242 242 239 233 238 245 250 252 253 253 252 255 258 258 258 260 263 266 267 267 264 260 262 265 269
213 216 214 214 216 223 235 241 247 259 270 283 301 299 289 303 331 354 353 349 23 47 36 48 41 18 326 322 337 336 328 356 17 88 93 65 73 94 110 136 145 106 42 352 2 59 84 81 103 216 220 252 261 245 247 241 241 248 248 249 250 251 246 240 240 244 249 253 258 257 254 255 260 263 261 259 262 265 268 270 270 269 269 269 271
216 218 218 220 222 223 233 240 246 259 270 281 296 292 289 314 336 351 350 351 33 57 35 50 16 321 292 291 300 320 295 342 20 34 95 86 89 106 114 122 126 112 109 93 354 25 46 54 78 191 201 256 262 250 256 246 240 244 243 244 249 251 249 245 243 245 246 249 255 258 258 259 261 262 262 261 262 266 267 270 272 273 274 274 274
218 221 221 224 225 225 232 236 245 257 266 280 291 285 304 330 343 345 342 347 29 75 28 51 18 288 279 284 281 277 256 242 26 347 116 105 112 115 115 121 120 105 104 114 88 55 52 50 53 106 178 221 228 233 246 242 242 249 235 234 243 248 250 249 245 243 244 245 250 255 258 261 263 262 262 265 268 270 270 270 272 273 274 274 275
221 222 223 224 224 225 231 234 243 253 259 274 282 283 312 334 341 338 340 342 335 28 66 40 312 286 283 275 266 256 240 225 58 252 159 123 123 118 115 115 105 88 79 94 115 132 47 60 81 115 196 206 216 230 244 234 236 253 248 242 247 252 259 263 256 246 244 245 247 252 258 262 266 268 268 273 277 278 277 275 273 273 272 272 272
222 223 223 225 223 226 230 233 241 251 256 265 277 293 316 329 329 334 340 338 344 18 155 310 311 289 278 253 239 230 234 222 197 225 178 141 131 121 115 107 88 75 67 70 85 103 30 69 100 136 168 188 206 211 232 231 223 258 261 261 264 267 276 279 272 258 247 248 250 254 261 265 269 273 274 275 276 277 277 276 274 273 272 271 271
224 222 223 225 226 228 232 235 242 249 258 265 276 294 315 322 320 331 331 309 279 227 232 267 348 274 174 169 193 199 221 222 206 211 187 159 144 132 118 105 99 85 70 48 40 48 45 93 112 121 126 147 150 122 144 108 91 66 269 258 265 273 285 291 287 269 250 254 260 262 268 271 275 277 278 278 277 278 278 279 278 277 275 274 275
226 224 223 227 230 232 235 239 244 248 256 266 277 292 311 316 312 320 316 311 265 232 233 231 161 133 150 159 168 174 190 218 214 203 190 177 157 152 135 117 126 103 75 53 45 44 13 39 96 97 96 107 101 86 65 70 82 82 89 101 102 99 95 77 88 158 207 246 255 262 272 279 283 283 285 288 289 287 286 287 289 287 285 283 281
227 226 224 228 232 235 239 241 244 247 250 261 275 290 303 301 294 292 291 304 258 241 236 227 191 159 152 136 143 171 181 188 198 192 194 190 174 176 159 142 154 100 81 78 78 71 53 50 58 56 79 98 86 82 91 84 75 73 85 104 113 114 113 107 103 107 104 107 182 243 273 290 296 295 300 300 298 296 295 297 298 296 293 291 288
227 227 227 229 232 236 241 242 245 249 250 256 269 283 289 279 274 281 271 214 192 232 249 243 206 180 170 158 152 165 150 152 175 181 195 195 185 197 182 163 172 116 106 124 108 92 83 71 69 70 83 106 113 119 124 113 56 54 58 86 104 108 108 103 96 94 94 91 55 2 335 326 318 314 314 307 303 303 301 301 301 302 300 299 297
228 228 229 231 233 235 240 244 245 246 249 251 259 272 273 259 254 264 267 229 195 209 230 234 220 192 178 184 178 119 105 143 175 180 190 200 202 212 201 181 177 131 122 125 105 99 93 56 40 50 43 58 102 118 117 110 98 100 67 60 73 70 66 61 60 63 57 40 15 2 352 344 334 326 320 314 311 309 307 305 301 301 300 300 300
231 232 232 233 234 237 241 245 243 242 247 249 252 261 255 244 243 249 254 231 202 200 208 219 225 201 188 198 205 189 173 175 182 177 186 203 214 225 219 198 186 149 146 138 112 113 116 66 22 19 31 44 80 93 98 107 108 105 91 75 72 71 72 59 45 43 38 28 14 2 352 344 337 332 326 319 315 311 307 305 301 299 297 295 295
234 235 235 235 236 239 240 243 242 240 243 245 247 250 244 238 238 247 247 224 208 200 194 204 209 199 199 200 210 221 210 202 221 225 232 231 209 210 214 196 194 208 191 174 152 148 154 135 75 41 43 57 85 100 108 110 101 96 93 93 94 90 93 91 81 57 30 11 356 347 336 332 327 323 321 316 312 307 304 301 298 297 295 294 294
233 236 237 237 237 239 240 240 241 240 241 241 242 242 239 239 238 246 246 217 215 217 199 198 192 190 202 194 198 215 211 225 244 247 261 258 185 174 185 191 202 217 212 208 194 175 179 172 132 105 88 79 98 114 124 127 120 120 113 106 106 105 104 101 98 65 339 318 313 314 313 315 315 312 310 308 305 302 300 298 297 296 295 295 294
232 235 237 236 236 238 239 240 239 238 238 235 238 239 237 240 236 241 239 210 218 236 216 202 188 184 197 193 189 195 199 214 226 231 231 223 198 173 178 198 209 202 198 218 212 193 195 196 159 125 126 123 125 131 143 159 162 149 137 130 123 112 108 87 355 309 304 307 311 312 313 312 311 310 307 303 302 299 297 297 296 295 295 294 294
231 234 236 236 236 238 237 239 239 237 238 236 238 239 238 240 233 237 236 210 218 238 222 210 199 192 196 197 195 192 198 207 209 217 213 200 217 214 191 208 222 196 193 216 217 212 216 210 203 198 178 167 171 178 188 204 213 192 193 215 230 258 278 291 300 310 312 311 308 302 302 300 299 300 299 298 297 295 295 294 292 292 291 291 291
231 233 235 236 237 238 236 237 237 237 237 236 237 237 235 235 230 235 234 212 222 237 222 214 212 204 200 203 208 204 207 213 209 215 215 204 213 230 231 228 235 217 217 231 226 225 230 225 223 222 211 203 205 215 219 225 235 228 230 247 251 260 271 275 280 285 286 288 289 288 287 289 289 289 290 291 291 291 290 290 290 289 289 288 287
231 232 234 236 237 238 237 237 237 237 237 238 242 241 233 230 232 237 234 219 227 238 225 214 214 210 200 203 213 214 213 216 215 212 213 214 214 226 239 226 222 222 221 229 225 227 231 228 228 226 224 224 227 241 241 231 248 251 245 254 257 259 268 272 273 276 277 279 282 285 287 287 288 288 289 290 291 291 291 290 290 290 290 290 290
232 233 234 235 238 239 239 240 239 240 242 243 247 246 235 231 235 237 233 224 226 233 227 214 212 212 203 200 205 211 215 213 214 212 208 218 221 222 231 231 229 224 218 222 220 224 231 228 226 228 236 239 236 248 251 234 248 259 250 253 260 260 264 272 275 276 278 281 284 287 291 291 291 290 289 290 291 291 292 291 291 292 292 293 294
235 235 236 236 238 240 240 240 242 244 246 247 250 249 239 232 232 233 232 227 222 228 229 219 214 213 210 207 202 204 214 211 210 215 211 216 223 220 223 225 228 223 219 222 221 223 227 224 222 227 241 249 244 252 258 245 246 255 248 248 256 257 255 262 270 274 277 281 287 291 294 293 292 291 289 288 289 289 290 290 290 291 292 294 295
237 236 236 236 238 240 240 240 242 244 246 247 250 253 246 236 232 232 230 225 220 227 233 226 218 214 213 216 210 204 213 215 211 214 215 215 215 215 216 218 225 228 223 223 226 230 226 219 224 232 241 248 248 253 258 250 248 249 241 239 247 251 249 251 262 270 273 278 284 288 290 291 290 289 289 289 290 290 290 290 290 290 290 291 293
239 237 237 237 237 239 240 240 241 242 244 247 249 251 251 243 236 235 232 226 221 229 235 232 225 218 215 219 217 210 216 224 221 219 222 225 221 218 215 214 220 228 232 234 234 232 223 218 230 247 251 248 249 255 253 245 246 241 235 238 241 248 251 250 256 264 269 275 282 286 290 293 293 293 293 294 294 294 294 293 292 291 290 289 290
238 238 237 236 237 238 239 240 241 241 242 245 247 249 250 247 238 235 236 230 223 227 234 233 229 224 219 221 221 217 221 229 229 225 230 233 230 227 222 215 215 219 227 239 242 232 224 225 231 249 261 258 254 260 256 247 249 241 240 245 244 248 253 254 258 263 268 275 282 290 295 297 297 296 294 293 293 293 293 293 291 290 289 288 288
237 236 235 236 236 237 238 238 240 241 240 242 246 247 247 247 240 234 235 234 226 226 232 233 231 228 225 225 225 222 223 228 228 227 233 236 232 230 228 222 221 220 220 229 240 235 225 228 228 235 255 260 252 252 252 252 256 248 246 252 250 253 259 260 261 265 272 278 284 291 296 298 298 296 293 291 290 290 291 291 291 291 289 288 288
236 236 234 234 235 236 236 236 237 239 239 238 242 244 244 244 241 234 235 237 232 228 231 233 234 233 230 228 228 226 225 227 228 228 234 238 234 230 230 229 230 229 224 224 233 237 231 229 232 232 245 254 254 250 245 246 257 255 249 255 255 255 259 260 264 270 274 280 286 292 297 300 300 298 295 293 293 294 294 294 293 292 290 288 287
236 236 234 232 233 234 235 235 235 236 237 236 238 242 243 242 240 235 235 238 236 232 233 234 234 235 234 232 232 229 226 227 229 230 233 237 236 232 231 231 232 234 233 229 230 238 238 234 237 238 238 245 252 256 251 242 250 259 255 253 257 255 249 249 262 276 280 281 288 297 302 304 304 302 299 298 298 299 299 298 296 293 291 289 288
236 236 235 233 232 232 233 234 234 234 235 234 235 239 241 241 240 237 236 237 235 232 234 234 234 235 235 234 234 233 230 228 229 230 232 234 235 234 233 232 231 232 237 237 232 234 238 239 243 243 241 246 248 251 254 242 236 251 256 253 256 256 252 247 253 271 279 281 288 298 305 310 312 309 303 301 300 300 299 298 296 294 293 292 290
236 235 234 233 232 231 231 233 234 235 235 234 234 236 239 239 239 238 237 237 236 233 234 235 235 235 236 236 236 236 234 231 230 231 231 233 235 235 235 234 232 231 235 240 238 233 234 238 241 238 238 249 248 242 249 245 231 239 251 252 251 251 252 251 250 262 273 277 285 295 303 310 314 312 309 307 305 303 302 298 296 295 294 294 293
237 236 234 233 233 232 231 232 234 235 235 235 234 235 237 237 238 239 238 238 237 235 235 236 236 236 237 237 238 238 238 236 234 233 234 236 237 238 237 237 238 235 232 239 244 240 236 235 236 235 230 236 243 238 240 244 237 239 245 246 245 244 247 252 253 259 269 276 282 289 297 305 309 313 316 317 315 311 306 301 298 296 294 291 290
237 238 235 233 234 234 233 233 234 235 236 236 234 235 237 237 236 238 239 239 237 236 236 236 236 237 237 238 239 240 241 240 238 237 237 239 240 240 240 240 242 241 235 237 244 245 241 236 235 240 237 233 239 239 233 236 239 241 245 246 243 243 245 249 250 254 265 274 280 285 293 299 300 304 309 312 313 308 300 297 297 296 293 290 288
237 238 237 235 234 234 234 234 235 236 237 237 236 236 237 238 236 237 239 239 238 237 237 236 236 237 238 238 239 240 242 242 241 240 240 241 242 242 243 243 243 244 241 238 242 245 244 239 235 239 243 242 242 242 242 244 242 238 242 246 246 246 249 251 250 250 259 269 277 283 289 292 296 302 306 309 309 303 294 292 295 295 293 291 289
236 237 238 237 236 236 236 236 236 237 238 239 238 237 237 238 237 237 238 239 239 237 237 237 236 237 238 238 239 240 241 242 242 242 242 243 243 243 244 246 244 244 242 238 239 242 243 240 236 235 240 245 244 242 246 250 248 244 241 241 240 244 251 256 256 255 260 269 278 283 286 290 297 302 305 307 308 303 295 295 296 296 294 291 288
237 237 238 238 237 237 237 237 237 238 239 240 240 238 237 238 238 237 237 238 239 238 238 238 237 238 238 239 239 241 242 243 242 242 243 243 243 243 244 245 245 244 242 235 233 237 238 235 234 233 234 240 242 239 240 243 247 251 252 248 245 244 246 251 257 263 269 275 281 285 289 294 299 301 303 305 306 301 296 299 301 297 293 290 288
239 239 239 239 239 239 238 238 238 238 239 240 241 239 238 238 238 238 237 237 238 239 239 239 238 238 239 240 240 241 243 244 242 241 243 243 243 243 244 244 244 245 243 235 229 232 234 232 232 231 231 235 238 236 234 237 244 250 253 257 258 256 254 256 264 271 274 278 284 287 290 295 297 299 300 300 301 298 297 303 306 299 294 296 294
241 240 240 240 240 240 239 238 238 238 238 239 240 240 239 239 238 238 238 238 238 239 240 240 240 239 240 240 241 242 243 244 243 240 240 242 242 241 243 243 242 242 242 236 231 230 231 231 231 230 231 232 233 234 233 236 242 245 249 259 264 264 266 269 272 275 277 280 285 287 289 292 293 292 291 289 291 294 296 298 296 287 290 297 297
242 242 242 241 241 241 241 240 239 238 238 238 240 240 240 240 240 239 240 239 239 239 241 242 242 241 241 241 241 243 243 243 242 240 238 239 239 238 240 243 243 241 240 237 234 231 230 232 232 232 234 233 232 235 236 234 238 245 252 262 266 265 267 270 271 275 279 282 284 284 286 290 289 287 287 287 288 289 287 284 284 287 293 297 296
243 243 243 242 241 241 242 242 241 240 239 239 239 241 241 241 241 241 241 242 241 240 241 243 244 243 242 242 241 242 243 242 240 240 239 239 239 238 240 243 245 244 241 238 235 232 232 235 235 233 236 237 234 233 234 233 238 248 257 263 268 270 268 268 268 268 275 281 282 282 283 287 292 292 290 287 286 285 282 282 290 300 305 302 300
244 244 244 244 242 241 242 243 243 242 242 241 240 240 242 242 242 241 242 243 242 241 242 244 245 245 244 242 242 242 243 242 240 240 241 240 239 239 240 243 245 244 243 241 238 233 229 232 237 237 236 237 237 234 235 240 243 250 259 264 270 276 273 269 270 268 270 277 281 280 280 283 285 285 282 281 281 283 285 290 300 308 308 304 303
245 245 246 245 244 243 242 243 244 244 244 244 242 240 241 242 242 241 241 242 243 242 242 243 245 247 245 243 242 242 243 242 239 239 241 241 239 238 239 241 242 243 244 244 240 235 229 224 227 234 236 234 235 236 240 247 248 250 258 264 271 278 276 272 273 272 271 276 279 278 279 282 278 275 276 278 280 285 290 294 302 307 305 302 302
247 247 247 247 246 245 244 245 246 246 246 246 244 242 240 241 241 240 239 240 241 241 242 242 244 245 244 242 242 242 243 242 239 236 238 242 242 238 238 241 242 243 246 246 242 238 233 227 224 227 232 234 235 238 241 245 247 250 257 265 270 271 270 270 274 275 277 280 277 269 274 282 279 275 277 280 281 286 291 295 301 305 305 302 303
247 248 248 249 248 247 247 246 245 246 246 246 245 243 241 240 240 239 237 236 237 239 239 239 241 241 240 239 238 239 240 241 238 234 234 239 241 238 238 241 241 241 245 247 244 239 235 233 230 227 229 234 234 234 236 238 244 254 262 268 268 264 263 267 270 271 273 274 273 274 277 279 278 275 278 282 284 287 293 298 300 302 305 309 309
246 247 249 249 249 249 248 245 245 246 246 244 243 243 242 241 239 238 236 234 234 236 237 237 238 239 239 237 234 234 236 236 235 232 230 233 235 233 231 233 233 234 236 239 242 239 233 231 232 229 229 232 232 232 235 237 243 257 265 264 260 258 259 260 262 264 262 263 271 275 271 268 272 279 283 285 289 294 300 302 296 293 302 312 318
247 247 248 249 250 250 248 247 247 248 245 244 246 245 244 243 241 239 237 234 233 235 236 236 237 237 237 236 233 231 232 234 233 229 227 228 231 230 228 226 226 229 226 223 231 236 230 224 225 226 227 229 231 232 235 237 242 253 259 258 251 245 245 248 259 270 269 264 261 255 254 265 278 284 288 291 295 299 300 297 292 291 299 309 314
250 249 248 249 250 250 250 249 248 247 246 247 248 248 248 247 245 242 239 235 234 235 235 236 236 234 233 234 234 231 231 233 233 229 225 225 226 228 227 225 225 225 218 219 226 230 229 224 223 224 226 227 228 230 233 236 243 248 251 250 243 234 241 253 263 264 263 262 254 248 253 272 285 286 292 298 299 298 297 296 295 296 298 300 302